Location: Unspecified
(48.7670°N, 0.0000°E)
Time: 02:56:26
(UTC+00:00)

S-56A Canister/Altair - Pass Details

Date: 27 October 2019
Orbit: 634 x 2498 km, 38.9° (Epoch: 14 November)

Event Time Altitude Azimuth Distance (km) Brightness Sun altitude
Exits shadow 02:34:21 22° 125° (SE) 2,245 10.0 -39.6°
Drops below altitude 10° 02:37:37 10° 111° (ESE) 3,298 11.1 -39.2°
Sets 02:41:25 0° 103° (ESE) 4,601 12.1 -38.6°
